This is the latest recevied weather packets stored in our database for station/object N0QV. If no packets are shown the sender has not sent any weather packets the latest 10 day(s).
| Time | Temp. | Humidity | Pressure | Rain* | Wind** | Luminosity | Snow |
|---|---|---|---|---|---|---|---|
| 1778084385 | 6.11° C | 50% | 1018.2 hPa | 0 mm | - | 175 W/m² | - |
| 1778084083 | 6.11° C | 49% | 1018.1 hPa | 0 mm | - | 201 W/m² | - |
| 1778083781 | 5.56° C | 50% | 1018.2 hPa | 0 mm | - | 202 W/m² | - |
| 1778083478 | 5.56° C | 51% | 1018 hPa | 0 mm | - | 211 W/m² | - |
| 1778083175 | 5.56° C | 52% | 1018.1 hPa | 0 mm | - | 209 W/m² | - |
| 1778082873 | 5.56° C | 51% | 1018.2 hPa | 0 mm | - | 203 W/m² | - |
| 1778081754 | 5.56° C | 53% | 1018.2 hPa | 0 mm | - | 183 W/m² | - |
| 1778081451 | 5.56° C | 53% | 1018.1 hPa | 0 mm | - | 173 W/m² | - |
| 1778081148 | 5° C | 53% | 1018.3 hPa | 0 mm | - | 170 W/m² | - |
| 1778080846 | 5° C | 54% | 1018 hPa | 0 mm | - | 164 W/m² | - |
| 1778080544 | 5° C | 57% | 1017.9 hPa | 0 mm | - | 150 W/m² | - |
| 1778080241 | 5° C | 57% | 1018 hPa | 0 mm | - | 146 W/m² | - |
| 1778079937 | 5° C | 55% | 1018.1 hPa | 0 mm | - | 145 W/m² | - |
| 1778079634 | 5° C | 56% | 1018 hPa | 0 mm | - | 141 W/m² | - |
| 1778079331 | 5° C | 56% | 1018.2 hPa | 0 mm | - | 132 W/m² | - |
| 1778079029 | 5° C | 56% | 1018.1 hPa | 0 mm | - | 134 W/m² | - |
| 1778078725 | 5° C | 56% | 1018 hPa | 0 mm | - | 155 W/m² | - |
| 1778078423 | 4.44° C | 57% | 1017.8 hPa | 0 mm | - | 138 W/m² | - |
| 1778078120 | 4.44° C | 62% | 1018.1 hPa | 0 mm | - | 129 W/m² | - |
| 1778077819 | 4.44° C | 62% | 1018 hPa | 0 mm | - | 129 W/m² | - |
| 1778077516 | 4.44° C | 63% | 1017.9 hPa | 0 mm | - | 129 W/m² | - |
| 1778077214 | 4.44° C | 62% | 1017.9 hPa | 0 mm | - | 106 W/m² | - |
| 1778076912 | 3.89° C | 63% | 1018 hPa | 0 mm | - | 98 W/m² | - |
| 1778076610 | 3.89° C | 62% | 1018 hPa | 0 mm | - | 93 W/m² | - |
| 1778076307 | 3.89° C | 63% | 1018 hPa | 0 mm | - | 98 W/m² | - |
* Rain latest hour (hover to see other rain measurements)
** Current wind speed in m/s (hover to see current wind gust speed)